Weather History for KAQP - December, 2014

Change the Weather History Date:

Friday, December 26, 2014

  Actual Average Record
Temperature  
Mean Temperature 24 °F -  
Max Temperature 28 °F 21 °F 50 °F (2011)
Min Temperature 21 °F 6 °F -25 °F (1996)
Degree Days  
Heating Degree Days 40    
Moisture  
Dew Point 23 °F    
Average Humidity 85    
Maximum Humidity 93    
Minimum Humidity 74    
Precipitation  
Precipitation 0.00 in - - ()
Sea Level Pressure  
Sea Level Pressure 30.07 in    
Wind  
Wind Speed 15 mph (North)    
Max Wind Speed 20 mph    
Max Gust Speed 21 mph    
Visibility 9 miles    
Events Snow    
Averages and records for this station are not official NWS values.
T = Trace of Precipitation, MM = Missing Value Source: NWS Daily Summary

Daily Weather History Graph

Daily Weather History Graph

Search for Another Location

Airport or City:

Trip Planner

Search our weather history database for the weather conditions in past years. The results will help you decide how hot, cold, wet, or windy it might be!

Date:

Astronomy

Dec. 26, 2014 Rise Set
Actual Time 8:02 AM CST 4:47 PM CST
Civil Twilight 7:28 AM CST 5:21 PM CST
Nautical Twilight 6:50 AM CST 5:58 PM CST
Astronomical Twilight 6:14 AM CST 6:34 PM CST
Moon 11:00 AM CST (12/26) 10:46 PM CST (12/26)
Length of Visible Light 9h 53m
Length of Day
8h 45m
Waxing Crescent, 28% of the Moon is Illuminated
Dec 26
Waxing Crescent
Dec 28
First Quarter
Jan 4
Full
Jan 13
Last Quarter
Jan 20
New

Hourly Weather History & Observations

Time (CST) Temp. Windchill Dew Point Humidity Pressure Visibility Wind Dir Wind Speed Gust Speed Precip Events Conditions
12:15 AM 28.4 °F 16.2 °F 26.6 °F 93% 29.91 in 1.8 mi North 17.3 mph - N/A Snow Light Snow
12:34 AM 28.4 °F 16.2 °F 26.6 °F 93% 29.91 in 3.0 mi North 17.3 mph - N/A Snow Light Snow
12:54 AM 28.4 °F 16.2 °F 26.6 °F 93% 29.91 in 5.0 mi North 17.3 mph - N/A Snow Light Snow
1:14 AM 28.4 °F 17.0 °F 26.6 °F 93% 29.92 in 7.0 mi North 15.0 mph - N/A   Overcast
1:35 AM 28.4 °F 17.5 °F 24.8 °F 86% 29.93 in 7.0 mi North 13.8 mph - N/A   Overcast
1:55 AM 28.4 °F 17.5 °F 24.8 °F 86% 29.93 in 7.0 mi North 13.8 mph - N/A Snow Light Snow
2:14 AM 28.4 °F 17.0 °F 24.8 °F 86% 29.94 in 10.0 mi North 15.0 mph - N/A   Overcast
2:34 AM 28.4 °F 17.5 °F 24.8 °F 86% 29.95 in 10.0 mi North 13.8 mph - N/A   Overcast
2:55 AM 28.4 °F 17.0 °F 24.8 °F 86% 29.95 in 10.0 mi North 15.0 mph - N/A   Overcast
3:15 AM 28.4 °F 17.5 °F 24.8 °F 86% 29.96 in 10.0 mi North 13.8 mph - N/A   Mostly Cloudy
3:35 AM 28.4 °F 17.5 °F 24.8 °F 86% 29.97 in 7.0 mi North 13.8 mph - N/A   Overcast
3:54 AM 28.4 °F 18.0 °F 24.8 °F 86% 29.97 in 7.0 mi North 12.7 mph - N/A   Overcast
4:14 AM 28.4 °F 17.5 °F 24.8 °F 86% 29.97 in 5.0 mi North 13.8 mph - N/A Snow Light Snow
4:34 AM 28.4 °F 17.5 °F 24.8 °F 86% 29.98 in 7.0 mi North 13.8 mph - N/A Snow Light Snow
4:54 AM 28.4 °F 16.6 °F 24.8 °F 86% 29.99 in 7.0 mi North 16.1 mph - N/A   Overcast
5:14 AM 28.4 °F 17.5 °F 24.8 °F 86% 29.99 in 10.0 mi North 13.8 mph - N/A   Overcast
5:34 AM 28.4 °F 17.0 °F 24.8 °F 86% 30.00 in 10.0 mi North 15.0 mph - N/A   Overcast
5:54 AM 28.4 °F 18.0 °F 24.8 °F 86% 30.01 in 4.0 mi North 12.7 mph - N/A Snow Light Snow
6:14 AM 28.4 °F 18.5 °F 24.8 °F 86% 30.02 in 3.0 mi North 11.5 mph - N/A Snow Light Snow
6:35 AM 28.4 °F 18.5 °F 24.8 °F 86% 30.03 in 5.0 mi North 11.5 mph - N/A Snow Light Snow
6:54 AM 26.6 °F 15.2 °F 24.8 °F 93% 30.03 in 5.0 mi North 13.8 mph - N/A Snow Light Snow
7:14 AM 26.6 °F 15.7 °F 24.8 °F 93% 30.04 in 5.0 mi North 12.7 mph - N/A Snow Light Snow
7:34 AM 26.6 °F 15.7 °F 24.8 °F 93% 30.06 in 7.0 mi NNW 12.7 mph - N/A Snow Light Snow
7:54 AM 26.6 °F 15.2 °F 24.8 °F 93% 30.05 in 10.0 mi NNW 13.8 mph - N/A Snow Light Snow
8:14 AM 26.6 °F 15.2 °F 24.8 °F 93% 30.06 in 10.0 mi NNW 13.8 mph - N/A Snow Light Snow
8:34 AM 26.6 °F 14.7 °F 24.8 °F 93% 30.07 in 10.0 mi NNW 15.0 mph - N/A Snow Light Snow
8:54 AM 26.6 °F 14.7 °F 24.8 °F 93% 30.07 in 7.0 mi NNW 15.0 mph - N/A   Overcast
9:14 AM 26.6 °F 13.8 °F 24.8 °F 93% 30.08 in 7.0 mi NNW 17.3 mph - N/A   Overcast
9:34 AM 28.4 °F 16.2 °F 24.8 °F 86% 30.09 in 10.0 mi NNW 17.3 mph - N/A   Overcast
9:54 AM 28.4 °F 15.8 °F 24.8 °F 86% 30.09 in 10.0 mi North 18.4 mph - N/A   Overcast
10:14 AM 28.4 °F 16.2 °F 24.8 °F 86% 30.10 in 10.0 mi NNW 17.3 mph 20.7 mph N/A   Overcast
10:34 AM 28.4 °F 17.5 °F 24.8 °F 86% 30.10 in 10.0 mi NNW 13.8 mph - N/A   Overcast
10:55 AM 28.4 °F 16.6 °F 24.8 °F 86% 30.11 in 7.0 mi North 16.1 mph - N/A   Overcast
11:14 AM 28.4 °F 16.6 °F 24.8 °F 86% 30.11 in 10.0 mi North 16.1 mph - N/A   Overcast
11:35 AM 28.4 °F 17.0 °F 24.8 °F 86% 30.11 in 10.0 mi NNW 15.0 mph - N/A   Overcast
11:54 AM 28.4 °F 17.5 °F 24.8 °F 86% 30.11 in 10.0 mi North 13.8 mph - N/A   Overcast
12:14 PM 28.4 °F 16.6 °F 24.8 °F 86% 30.10 in 10.0 mi NNW 16.1 mph - N/A   Overcast
12:35 PM 28.4 °F 17.5 °F 24.8 °F 86% 30.10 in 10.0 mi NNW 13.8 mph - N/A   Overcast
12:54 PM 28.4 °F 17.5 °F 24.8 °F 86% 30.10 in 10.0 mi NNW 13.8 mph - N/A   Overcast
1:14 PM 28.4 °F 17.0 °F 24.8 °F 86% 30.10 in 10.0 mi NNW 15.0 mph - N/A   Overcast
1:35 PM 28.4 °F 17.5 °F 24.8 °F 86% 30.10 in 10.0 mi NNW 13.8 mph - N/A   Overcast
1:54 PM 26.6 °F 16.2 °F 23.0 °F 86% 30.09 in 10.0 mi NNW 11.5 mph - N/A   Overcast
2:15 PM 26.6 °F 15.2 °F 23.0 °F 86% 30.08 in 10.0 mi North 13.8 mph - N/A   Overcast
2:35 PM 28.4 °F 16.6 °F 23.0 °F 80% 30.09 in 10.0 mi North 16.1 mph - N/A   Overcast
2:54 PM 26.6 °F 14.3 °F 23.0 °F 86% 30.09 in 10.0 mi North 16.1 mph - N/A   Overcast
3:14 PM 26.6 °F 15.2 °F 21.2 °F 80% 30.09 in 10.0 mi North 13.8 mph - N/A   Overcast
3:35 PM 26.6 °F 14.7 °F 21.2 °F 80% 30.09 in 10.0 mi North 15.0 mph - N/A   Overcast
3:54 PM 26.6 °F 15.2 °F 21.2 °F 80% 30.10 in 10.0 mi North 13.8 mph 18.4 mph N/A   Overcast
4:14 PM 26.6 °F 15.7 °F 21.2 °F 80% 30.11 in 10.0 mi NNE 12.7 mph - N/A   Overcast
4:34 PM 26.6 °F 17.5 °F 21.2 °F 80% 30.11 in 10.0 mi NNE 9.2 mph - N/A   Overcast
4:54 PM 26.6 °F 16.8 °F 21.2 °F 80% 30.12 in 10.0 mi NNE 10.4 mph - N/A   Overcast
5:14 PM 26.6 °F 17.5 °F 21.2 °F 80% 30.13 in 10.0 mi NNE 9.2 mph - N/A   Overcast
5:34 PM 26.6 °F 16.2 °F 21.2 °F 80% 30.14 in 10.0 mi North 11.5 mph - N/A   Overcast
5:55 PM 26.6 °F 15.2 °F 21.2 °F 80% 30.14 in 10.0 mi North 13.8 mph - N/A   Overcast
6:14 PM 26.6 °F 14.7 °F 21.2 °F 80% 30.15 in 10.0 mi North 15.0 mph - N/A   Overcast
6:35 PM 26.6 °F 15.2 °F 19.4 °F 74% 30.15 in 10.0 mi North 13.8 mph - N/A   Overcast
6:55 PM 26.6 °F 14.7 °F 21.2 °F 80% 30.15 in 10.0 mi North 15.0 mph - N/A   Overcast
7:14 PM 26.6 °F 15.2 °F 21.2 °F 80% 30.15 in 10.0 mi North 13.8 mph - N/A   Overcast
7:35 PM 26.6 °F 14.7 °F 21.2 °F 80% 30.15 in 10.0 mi North 15.0 mph - N/A   Overcast
7:54 PM 26.6 °F 14.3 °F 21.2 °F 80% 30.14 in 10.0 mi North 16.1 mph - N/A   Overcast
8:14 PM 26.6 °F 14.3 °F 19.4 °F 74% 30.15 in 10.0 mi North 16.1 mph - N/A   Overcast
8:34 PM 24.8 °F 12.4 °F 19.4 °F 80% 30.15 in 10.0 mi NNW 15.0 mph - N/A   Overcast
8:54 PM 24.8 °F 13.4 °F 19.4 °F 80% 30.15 in 10.0 mi North 12.7 mph - N/A   Overcast
9:14 PM 24.8 °F 11.9 °F 19.4 °F 80% 30.15 in 10.0 mi North 16.1 mph - N/A   Overcast
9:34 PM 24.8 °F 12.9 °F 19.4 °F 80% 30.14 in 10.0 mi North 13.8 mph - N/A   Overcast
9:54 PM 24.8 °F 13.4 °F 19.4 °F 80% 30.14 in 10.0 mi North 12.7 mph - N/A   Overcast
10:14 PM 24.8 °F 11.9 °F 19.4 °F 80% 30.13 in 10.0 mi North 16.1 mph - N/A   Overcast
10:34 PM 24.8 °F 12.9 °F 19.4 °F 80% 30.14 in 10.0 mi North 13.8 mph - N/A   Overcast
10:54 PM 23.0 °F 9.2 °F 19.4 °F 86% 30.13 in 10.0 mi North 17.3 mph - N/A   Overcast
11:14 PM 23.0 °F 9.2 °F 17.6 °F 80% 30.13 in 10.0 mi North 17.3 mph - N/A   Overcast
11:34 PM 21.2 °F 6.4 °F 17.6 °F 86% 30.13 in 10.0 mi NNW 18.4 mph - N/A   Overcast
11:54 PM 21.2 °F 6.0 °F 17.6 °F 86% 30.13 in 10.0 mi North 19.6 mph - N/A   Overcast